Princeton, British Columbia

12:04 PM PST on December 09, 2016 (GMT -0800)
Princeton

Weather History for CWPR - November, 2012

Change the Weather History Date:

Monday, November 26, 2012

  Actual Average (CYDC) Record (CYDC)
Temperature  
Mean Temperature 24 °F -  
Max Temperature 33 °F 32 °F 42 °F (1998)
Min Temperature 16 °F 23 °F -17 °F (2014)
Degree Days  
Heating Degree Days 40    
Moisture  
Dew Point 19 °F    
Average Humidity 85    
Maximum Humidity 93    
Minimum Humidity 65    
Precipitation  
Precipitation 0.00 in - - ()
Sea Level Pressure  
Sea Level Pressure 30.32 in    
Wind  
Wind Speed 0 mph ()    
Max Wind Speed 2 mph    
Max Gust Speed -    
Averages and records for this station are not official NWS values.
T = Trace of Precipitation, MM = Missing Value Source: Averaged Metar Reports

Daily Weather History Graph

Daily Weather History Graph

Search for Another Location

Airport or City:

Trip Planner

Search our weather history database for the weather conditions in past years. The results will help you decide how hot, cold, wet, or windy it might be!

Date:

Astronomy

Nov. 26, 2012 Rise Set
Actual Time 7:30 AM PST 4:08 PM PST
Civil Twilight 6:54 AM PST 4:44 PM PST
Nautical Twilight 6:14 AM PST 5:24 PM PST
Astronomical Twilight 5:36 AM PST 6:02 PM PST
Moon 3:08 PM PST (11/26) 5:40 AM PST (11/26)
Length of Visible Light 9h 50m
Length of Day
8h 37m
Waxing Gibbous, 97% of the Moon is Illuminated
Nov 26
Waxing Gibbous
Nov 28
Full
Dec 6
Last Quarter
Dec 13
New
Dec 19
First Quarter

Hourly Weather History & Observations

Time (PST) Temp. Dew Point Humidity Pressure Visibility Wind Dir Wind Speed Gust Speed Precip Events Conditions
12:00 AM 22.8 °F 19.2 °F 86% 30.39 in - Calm Calm - N/A   Unknown
1:00 AM 22.3 °F 19.2 °F 88% 30.37 in - West 2.3 mph - N/A   Unknown
2:00 AM 20.5 °F 18.9 °F 93% 30.37 in - Calm Calm - N/A   Unknown
3:00 AM 19.2 °F 17.4 °F 93% 30.38 in - Calm Calm - N/A   Unknown
4:00 AM 18 °F 17 °F 91% 30.37 in - Calm Calm - -  
4:00 AM 18.5 °F 16.5 °F 92% 30.37 in - Calm Calm - N/A   Unknown
5:00 AM 17.6 °F 15.8 °F 93% 30.38 in - Calm Calm - N/A   Unknown
6:00 AM 17.8 °F 16.0 °F 93% 30.38 in - Calm Calm - N/A   Unknown
7:00 AM 17.8 °F 16.0 °F 93% 30.37 in - Calm Calm - N/A   Unknown
8:00 AM 17.4 °F 15.6 °F 93% 30.37 in - Calm Calm - N/A   Unknown
9:00 AM 20.5 °F 18.3 °F 91% 30.36 in - Calm Calm - N/A   Unknown
10:00 AM 23 °F 19 °F 77% 30.35 in - Calm Calm - -  
10:00 AM 22.8 °F 18.7 °F 84% 30.35 in - Calm Calm - N/A   Unknown
11:00 AM 24.1 °F 19.0 °F 81% 30.33 in - Calm Calm - N/A   Unknown
12:00 PM 27.1 °F 19.9 °F 74% 30.29 in - Calm Calm - N/A   Unknown
1:00 PM 29.1 °F 19.6 °F 68% 30.27 in - Calm Calm - N/A   Unknown
2:00 PM 30.7 °F 20.8 °F 67% 30.25 in - Calm Calm - N/A   Unknown
3:00 PM 31.3 °F 20.7 °F 65% 30.25 in - Calm Calm - N/A   Unknown
4:00 PM 29 °F 22 °F 67% 30.25 in - Calm Calm - -  
4:00 PM 28.9 °F 22.3 °F 76% 30.25 in - Calm Calm - N/A   Unknown
5:00 PM 26.6 °F 21.6 °F 81% 30.26 in - Calm Calm - N/A   Unknown
6:00 PM 25.7 °F 21.6 °F 84% 30.26 in - Calm Calm - N/A   Unknown
7:00 PM 24.8 °F 21.0 °F 86% 30.27 in - Calm Calm - N/A   Unknown
8:00 PM 23.2 °F 20.5 °F 89% 30.27 in - Calm Calm - N/A   Unknown
9:00 PM 22.3 °F 20.3 °F 92% 30.27 in - Calm Calm - N/A   Unknown
10:00 PM 20 °F 19 °F 92% 30.28 in - Calm Calm - -  
10:00 PM 20.5 °F 18.7 °F 93% 30.28 in - Calm Calm - N/A   Unknown
11:00 PM 20.1 °F 18.1 °F 92% 30.27 in - Calm Calm - N/A   Unknown